Lamar, CO

1:46 PM MDT on April 29, 2017 (GMT -0600)
Lamar Municipal

Weather History for KLAA - March, 2014

Change the Weather History Date:

Thursday, March 20, 2014

  Actual Average Record
Temperature  
Mean Temperature 48 °F 44 °F  
Max Temperature 74 °F 60 °F 86 °F (2017)
Min Temperature 21 °F 28 °F 0 °F (1924)
Degree Days  
Heating Degree Days 17 21  
Month to date heating degree days 491 486  
Since 1 July heating degree days 4772 4797  
Cooling Degree Days 0 0  
Month to date cooling degree days 0 0  
Year to date cooling degree days 0 0  
Moisture  
Dew Point 6 °F    
Average Humidity 32    
Maximum Humidity 60    
Minimum Humidity 4    
Precipitation  
Precipitation 0.00 in 0.02 in 0.38 in (1957)
Month to date precipitation 0.24 0.56  
Year to date precipitation 0.51  
Sea Level Pressure  
Sea Level Pressure 29.86 in    
Wind  
Wind Speed 9 mph (South)    
Max Wind Speed 22 mph    
Max Gust Speed 31 mph    
Visibility 9 miles    
Events      
T = Trace of Precipitation, MM = Missing Value Source: NWS Daily Summary

Daily Weather History Graph

Daily Weather History Graph

Search for Another Location

Airport or City:

Trip Planner

Search our weather history database for the weather conditions in past years. The results will help you decide how hot, cold, wet, or windy it might be!

Date:

Astronomy

Mar. 20, 2014 Rise Set
Actual Time 6:54 AM MDT 7:02 PM MDT
Civil Twilight 6:27 AM MDT 7:29 PM MDT
Nautical Twilight 5:57 AM MDT 7:59 PM MDT
Astronomical Twilight 5:26 AM MDT 8:31 PM MDT
Moon 11:20 PM MDT (3/20) 9:05 AM MDT (3/20)
Length of Visible Light 13h 01m
Length of Day
12h 08m
Waning Gibbous, 83% of the Moon is Illuminated
Mar 20
Waning Gibbous
Mar 23
Last Quarter
Mar 30
New
Apr 7
First Quarter
Apr 15
Full

Hourly Weather History & Observations

Time (MDT) Temp. Windchill Dew Point Humidity Pressure Visibility Wind Dir Wind Speed Gust Speed Precip Events Conditions
12:53 AM 35.1 °F - 10.0 °F 35% 29.95 in 10.0 mi Calm Calm - N/A   Clear
1:53 AM 36.0 °F 33.3 °F 10.9 °F 36% 29.95 in 10.0 mi WNW 3.5 mph - N/A   Clear
2:53 AM 32.0 °F 24.2 °F 12.9 °F 45% 29.94 in 10.0 mi SW 9.2 mph - N/A   Clear
3:53 AM 32.0 °F 28.7 °F 12.9 °F 45% 29.94 in 10.0 mi SW 3.5 mph - N/A   Clear
4:53 AM 27.0 °F 18.0 °F 12.0 °F 53% 29.97 in 10.0 mi SW 9.2 mph - N/A   Clear
5:53 AM 24.1 °F 14.4 °F 12.0 °F 60% 29.99 in 10.0 mi SW 9.2 mph - N/A   Clear
6:53 AM 24.1 °F 16.0 °F 10.9 °F 57% 30.01 in 9.0 mi WSW 6.9 mph - N/A   Clear
7:53 AM 28.0 °F - 12.9 °F 53% 30.04 in 9.0 mi Calm Calm - N/A   Clear
8:53 AM 37.9 °F 33.5 °F 16.0 °F 41% 30.03 in 10.0 mi NW 5.8 mph - N/A   Clear
9:53 AM 52.0 °F - 12.0 °F 20% 29.99 in 10.0 mi West 10.4 mph - N/A   Clear
10:53 AM 59.0 °F - 9.0 °F 14% 29.96 in 10.0 mi Variable 5.8 mph - N/A   Clear
11:33 AM 62.1 °F - 1.0 °F 9% 29.97 in 0.2 mi Calm Calm - N/A   Haze
11:46 AM 62.1 °F - 1.0 °F 9% 29.96 in 4.0 mi North - - N/A   Haze
11:53 AM 64.0 °F - 1.0 °F 8% 29.89 in 10.0 mi North - - N/A   Clear
12:53 PM 68.0 °F - -4.0 °F 6% 29.86 in - SSW 11.5 mph 17.3 mph N/A   Clear
1:53 PM 69.1 °F - -8.0 °F 4% 29.81 in 10.0 mi South 8.1 mph 17.3 mph N/A   Clear
2:53 PM 73.0 °F - -8.0 °F 4% 29.77 in 10.0 mi South 17.3 mph 24.2 mph N/A   Clear
3:53 PM 73.9 °F - -5.1 °F 4% 29.73 in 10.0 mi South 15.0 mph 23.0 mph N/A   Clear
4:53 PM 72.0 °F - -2.9 °F 5% 29.71 in 10.0 mi SSE 18.4 mph - N/A   Clear
5:53 PM 68.0 °F - 1.9 °F 7% 29.71 in 10.0 mi SE 18.4 mph - N/A   Clear
6:53 PM 63.0 °F - 3.9 °F 10% 29.71 in 10.0 mi ESE 15.0 mph - N/A   Clear
7:53 PM 57.0 °F - 6.1 °F 13% 29.70 in 10.0 mi ESE 15.0 mph - N/A   Clear
8:53 PM 50.0 °F - 8.1 °F 18% 29.71 in 10.0 mi East 4.6 mph - N/A   Clear
9:53 PM 43.0 °F 37.2 °F 10.0 °F 26% 29.70 in 10.0 mi North 10.4 mph - N/A   Clear
10:53 PM 41.0 °F 37.1 °F 12.0 °F 31% 29.70 in 10.0 mi SE 5.8 mph - N/A   Clear
11:53 PM 37.9 °F - 12.0 °F 35% 29.69 in 10.0 mi Calm Calm - N/A   Clear